[[{"header":{"parameterUnit":"m.s-1","parameterCategory":1,"la1":30.2991,"la2":30.254,"lo1":-89.0895,"lo2":-89.0444,"dy":0.0017,"dx":0.0017,"nx":28,"ny":28,"refTime":"2025-02-24T09:00:00:Z","depth":0,"parameterNumber":2,"parameterNumberName":"U-component_of_WINDS"},"data":[0,0,0,0,0,0,0,0,0,0,0,0,0,0,0,0,0,0,0,0,0,0,0,0,0,0,0,0,0,0,0,0,0,0,0,0,0,0,0,0,0,0,0,0,0,0,0,0,0,0,0,0,0,0,0,0,0,0,-2.3844,-2.3845,0,-2.3953,-2.3955,-2.3956,-2.3914,-2.3912,-2.3909,-2.3907,-2.4021,-2.4026,-2.4032,0,0,0,0,0,0,0,0,0,0,0,0,0,-2.3599,-2.3604,-2.3843,-2.3845,-2.3846,-2.3953,-2.3955,-2.3956,-2.3915,-2.3912,-2.3909,-2.3906,-2.4019,-2.4026,-2.4032,0,0,0,0,0,0,0,0,0,0,0,0,0,-2.3707,-2.3605,-2.3843,-2.3838,-2.3839,-2.3953,-2.3955,-2.3957,-2.3915,-2.3912,-2.3908,-2.3904,-2.4017,-2.4025,-2.4033,-2.4159,0,0,-2.4058,-2.4061,0,0,0,0,0,0,0,0,-2.3701,-2.3716,-2.3838,-2.3839,-2.384,-2.3916,-2.391,-2.4024,-2.3916,-2.3887,-2.3907,-2.3902,-2.3989,-2.4,-2.4029,-2.4164,-2.4169,-2.4059,-2.4063,-2.4067,-2.4069,0,0,0,0,0,0,0,-2.3693,-2.3711,-2.3887,-2.384,-2.3841,-2.3831,-2.3842,-2.3932,-2.3958,-2.3889,-2.3886,-2.39,-2.3989,-2.4021,-2.4031,-2.4171,-2.4058,-2.4065,-2.407,-2.4074,-2.4416,-2.442,0,0,0,0,0,0,-2.3685,-2.3705,-2.3883,-2.389,-2.3759,-2.3839,-2.3851,-2.3896,-2.3957,-2.3962,-2.3903,-2.3897,-2.4009,-2.4022,-2.4035,-2.4187,-2.4067,-2.4074,-2.4079,-2.4412,-2.4417,-2.4422,0,0,0,0,0,0,-2.368,-2.3701,-2.3879,-2.3797,-2.3819,-2.3847,-2.3897,-2.39,-2.3931,-2.3967,-2.3972,-2.393,-2.4006,-2.4023,-2.4128,-2.4191,-2.4078,-2.4085,-2.4407,-2.4413,-2.4419,-2.4493,0,0,0,0,0,0,-2.3673,-2.37,-2.3748,-2.3798,-2.3823,-2.3971,-2.3901,-2.3905,-2.3945,-2.3939,-2.3994,-2.4,-2.4005,-2.4117,-2.4136,-2.42,-2.4092,-2.4401,-2.441,-2.4417,-2.4485,-2.4501,-2.4515,0,0,0,0,0,-2.3665,-2.3764,-2.375,-2.3772,-2.3884,-2.3974,-2.3989,-2.3992,-2.395,-2.3999,-2.4022,-2.3998,-2.418,-2.4128,-2.415,-2.4217,-2.4398,-2.4407,-2.4417,-2.4479,-2.4498,-2.4514,0,0,0,0,0,0,-2.3721,-2.3771,-2.3756,-2.3875,-2.3921,-2.3967,-2.4029,-2.4012,-2.4072,-2.4063,-2.4065,-2.4078,-2.4187,-2.4212,-2.4152,-2.4342,-2.4283,-2.4297,-2.4322,-2.4341,-2.4355,-2.4348,-2.4098,0,0,0,0,0,-2.3747,-2.3816,-2.3856,-2.3957,-2.398,-2.4001,-2.404,-2.4039,-2.4087,-2.4106,-2.4137,-2.4185,-2.4253,-2.4298,-2.4362,-2.4487,-2.45,-2.4544,-2.4559,-2.4571,-2.4584,-2.4654,-2.4675,-2.4453,-2.4453,-2.4453,0,0,-2.3802,-2.3837,-2.3881,-2.3969,-2.4004,-2.4077,-2.4017,-2.4096,-2.415,-2.4118,-2.422,-2.4244,-2.4297,-2.4414,-2.4466,-2.4438,-2.4648,-2.4583,-2.4592,-2.4599,-2.4666,-2.4687,-2.4706,-2.4459,-2.4458,-2.4457,0,0,-2.3939,-2.3972,-2.4061,-2.4097,-2.4152,-2.4164,-2.4186,-2.4235,-2.425,-2.4351,-2.4329,-2.4393,-2.451,-2.4549,-2.4585,-2.4737,-2.4718,-2.4758,-2.4836,-2.4904,-2.4921,-2.4937,-2.4993,-2.5013,-2.477,-2.477,-2.477,0,-2.4001,-2.4109,-2.4109,-2.419,-2.423,-2.4203,-2.4293,-2.4329,-2.4401,-2.443,-2.4396,-2.4543,-2.4577,-2.4703,-2.474,-2.4768,-2.4794,-2.4753,-2.4919,-2.4934,-2.4949,-2.5003,-2.5024,-2.4775,-2.4774,-2.4774,-2.4774,0,-2.4183,-2.4258,-2.4323,-2.4394,-2.4441,-2.4526,-2.4539,-2.4587,-2.4581,-2.4597,-2.4702,-2.4741,-2.4814,-2.4843,-2.4838,-2.4969,-2.4949,-2.4917,-2.4858,-2.4975,-2.5025,-2.5046,-2.4782,-2.478,-2.4779,-2.4777,0,0,-2.4361,-2.443,-2.4454,-2.4487,-2.4544,-2.4603,-2.4686,-2.4757,-2.4799,-2.4849,-2.4921,-2.502,-2.4991,-2.5031,-2.503,-2.5089,-2.521,-2.505,-2.5051,-2.508,-2.5358,-2.5384,-2.5408,-2.5196,-2.52,-2.5203,-2.5354,0,-2.4505,-2.4653,-2.4655,-2.4791,-2.4861,-2.4836,-2.491,-2.4953,-2.4971,-2.5033,-2.5052,-2.5123,-2.5078,-2.5102,-2.5159,-2.5183,-2.5266,-2.5171,-2.5264,-2.5268,-2.5255,-2.5434,-2.5461,-2.5602,-2.5374,-2.5377,-2.538,0,-2.4693,-2.475,-2.4893,-2.4941,-2.4971,-2.5037,-2.5102,-2.5161,-2.5211,-2.5219,-2.5264,-2.5254,-2.534,-2.5276,-2.5397,-2.5332,-2.537,-2.5387,-2.5393,-2.5404,-2.5333,-2.5452,-2.5647,-2.567,-2.541,-2.5408,-2.5406,0,-2.4812,-2.4924,-2.5024,-2.5052,-2.511,-2.5157,-2.5184,-2.5229,-2.5271,-2.5328,-2.5356,-2.5422,-2.5459,-2.5511,-2.5519,-2.5472,-2.5641,-2.5577,-2.5652,-2.5652,-2.5691,-2.5689,-2.5897,-2.571,-2.571,-2.571,-2.5709,0,-2.4974,-2.5063,-2.5078,-2.5141,-2.524,-2.5241,-2.5339,-2.5362,-2.5402,-2.5469,-2.545,-2.5513,-2.5519,-2.5584,-2.5591,-2.5691,-2.5707,-2.5717,-2.5718,-2.5721,-2.572,-2.5747,-2.5739,-2.5715,-2.5714,-2.5713,-2.5712,0,-2.5124,-2.5138,-2.5246,-2.5292,-2.5305,-2.5377,-2.5416,-2.5476,-2.549,-2.5575,-2.5595,-2.5619,-2.5694,-2.5707,-2.5796,-2.58,-2.592,-2.591,-2.5904,-2.5904,-2.5979,-2.5972,-2.6215,-2.6247,-2.6037,-2.6039,-2.604,0,-2.5228,-2.5296,-2.5349,-2.5393,-2.5421,-2.5491,-2.5534,-2.5537,-2.5583,-2.5644,-2.5697,-2.577,-2.583,-2.5952,-2.5978,-2.6046,-2.6039,-2.6119,-2.6049,-2.6049,-2.6043,-2.604,-2.6048,-2.6133,-2.6135,-2.6137,-2.6139,0,-2.5412,-2.5416,-2.5478,-2.5544,-2.5596,-2.5648,-2.5697,-2.5734,-2.5743,-2.5796,-2.5873,-2.5919,-2.6009,-2.6084,-2.6151,-2.6178,-2.6162,-2.616,-2.6181,-2.6186,-2.618,-2.6187,-2.5944,-2.6155,-2.6154,-2.6152,-2.6151,-2.6151,-2.5545,-2.5604,-2.5651,-2.5722,-2.5759,-2.5806,-2.5864,-2.5886,-2.595,-2.6024,-2.6022,-2.6107,-2.6154,-2.6243,-2.6275,-2.6342,-2.6317,-2.6347,-2.6355,-2.6363,-2.6372,-2.6167,-2.6354,-2.6354,-2.6353,-2.6353,-2.6353,0,-2.573,-2.5758,-2.5823,-2.5893,-2.5949,-2.5926,-2.5979,-2.6028,-2.6103,-2.6148,-2.6206,-2.6295,-2.6367,-2.6397,-2.6468,-2.6516,-2.651,-2.6534,-2.6532,-2.6539,-2.6389,-2.6365,-2.6538,-2.6538,-2.6538,-2.6538,-2.6538,-2.6538,-2.5833,-2.5934,-2.5942,-2.6061,-2.6089,-2.6172,-2.6205,-2.6248,-2.6284,-2.6384,-2.6443,-2.6462,-2.6502,-2.6576,-2.664,-2.6647,-2.6675,-2.6705,-2.6708,-2.6568,-2.655,-2.6532,-2.6509,-2.671,-2.671,-2.6853,-2.6855,-2.6856]},{"header":{"parameterUnit":"m.s-1","parameterCategory":1,"la1":30.2991,"la2":30.254,"lo1":-89.0895,"lo2":-89.0444,"dy":0.0017,"dx":0.0017,"nx":28,"ny":28,"refTime":"2025-02-24T09:00:00:Z","depth":0,"parameterNumber":3,"parameterNumberName":"V-component_of_WINDS"},"data":[0,0,0,0,0,0,0,0,0,0,0,0,0,0,0,0,0,0,0,0,0,0,0,0,0,0,0,0,0,0,0,0,0,0,0,0,0,0,0,0,0,0,0,0,0,0,0,0,0,0,0,0,0,0,0,0,0,0,-6.0234,-6.0234,0,-6.0224,-6.0224,-6.0224,-6.0131,-6.0129,-6.0126,-6.0124,-6.0115,-6.0116,-6.0118,0,0,0,0,0,0,0,0,0,0,0,0,0,-6.0173,-6.0174,-6.0234,-6.0234,-6.0234,-6.0224,-6.0224,-6.0224,-6.0131,-6.0129,-6.0126,-6.0123,-6.0114,-6.0116,-6.0118,0,0,0,0,0,0,0,0,0,0,0,0,0,-6.0185,-6.0175,-6.0234,-6.0186,-6.0182,-6.0224,-6.0224,-6.0224,-6.0132,-6.0128,-6.0125,-6.0122,-6.0113,-6.0116,-6.0119,-6.0206,0,0,-6.0128,-6.0129,0,0,0,0,0,0,0,0,-6.0184,-6.0187,-6.0194,-6.019,-6.0185,-6.0175,-6.0199,-6.0218,-6.0133,-6.0151,-6.0124,-6.012,-6.0138,-6.0138,-6.0144,-6.0206,-6.0205,-6.0128,-6.013,-6.0131,-6.0132,0,0,0,0,0,0,0,-6.0184,-6.0187,-6.023,-6.0194,-6.0189,-6.0166,-6.0163,-6.0202,-6.0164,-6.0149,-6.0142,-6.0142,-6.0135,-6.0142,-6.0143,-6.0205,-6.0128,-6.013,-6.0132,-6.0133,-6.0337,-6.034,0,0,0,0,0,0,-6.0189,-6.0187,-6.023,-6.023,-6.0176,-6.017,-6.0167,-6.0182,-6.0163,-6.0157,-6.0145,-6.0138,-6.0138,-6.014,-6.0142,-6.0242,-6.0131,-6.0133,-6.0135,-6.0333,-6.0337,-6.0341,0,0,0,0,0,0,-6.0188,-6.0194,-6.0231,-6.0207,-6.021,-6.0174,-6.0192,-6.0184,-6.019,-6.016,-6.0153,-6.0159,-6.0136,-6.0138,-6.0191,-6.0241,-6.0135,-6.0137,-6.0329,-6.0334,-6.0339,-6.0443,0,0,0,0,0,0,-6.0187,-6.0194,-6.0227,-6.0208,-6.0211,-6.0279,-6.0195,-6.0186,-6.0195,-6.0186,-6.0172,-6.0166,-6.0133,-6.0187,-6.0193,-6.0243,-6.014,-6.0324,-6.0331,-6.0338,-6.0435,-6.0452,-6.0466,0,0,0,0,0,-6.0185,-6.0257,-6.0229,-6.0235,-6.0251,-6.0282,-6.0284,-6.0245,-6.02,-6.0232,-6.0213,-6.0166,-6.0235,-6.0193,-6.02,-6.025,-6.0321,-6.0329,-6.0337,-6.0428,-6.0449,-6.0466,0,0,0,0,0,0,-6.0283,-6.0254,-6.0223,-6.029,-6.029,-6.0267,-6.0306,-6.0268,-6.028,-6.027,-6.0221,-6.0218,-6.0278,-6.027,-6.0224,-6.0333,-6.0269,-6.0279,-6.0337,-6.0355,-6.037,-6.0371,-6.0142,0,0,0,0,0,-6.0313,-6.034,-6.0313,-6.0376,-6.0377,-6.0342,-6.0354,-6.0324,-6.0321,-6.032,-6.0305,-6.0304,-6.0325,-6.034,-6.0358,-6.0434,-6.0429,-6.0472,-6.0488,-6.05,-6.0509,-6.0548,-6.0567,-6.0369,-6.0369,-6.0368,0,0,-6.0374,-6.0361,-6.0382,-6.0395,-6.0391,-6.042,-6.0342,-6.0377,-6.0398,-6.0326,-6.0373,-6.0363,-6.0358,-6.0423,-6.0451,-6.0418,-6.0563,-6.0511,-6.0521,-6.0523,-6.0559,-6.0577,-6.0594,-6.0374,-6.0373,-6.0372,0,0,-6.05,-6.0494,-6.0545,-6.0542,-6.0537,-6.0513,-6.0525,-6.0508,-6.0498,-6.0545,-6.0491,-6.0516,-6.0554,-6.0553,-6.0557,-6.0683,-6.0641,-6.0691,-6.077,-6.0809,-6.0824,-6.0838,-6.0882,-6.0898,-6.07,-6.07,-6.07,0,-6.0577,-6.0619,-6.0576,-6.0614,-6.0621,-6.0557,-6.0607,-6.0607,-6.0608,-6.0614,-6.0578,-6.0623,-6.0616,-6.0679,-6.0709,-6.0716,-6.0728,-6.0691,-6.0825,-6.0839,-6.0851,-6.0892,-6.0909,-6.0706,-6.0706,-6.0705,-6.0704,0,-6.0713,-6.0743,-6.0785,-6.0787,-6.0799,-6.0843,-6.0807,-6.0824,-6.0793,-6.0774,-6.0823,-6.0812,-6.0826,-6.0839,-6.0809,-6.0898,-6.0877,-6.0834,-6.0768,-6.0876,-6.0914,-6.093,-6.0715,-6.0713,-6.0711,-6.0709,0,0,-6.09,-6.0877,-6.0893,-6.0893,-6.0882,-6.0905,-6.0946,-6.096,-6.0975,-6.0979,-6.1011,-6.1045,-6.1005,-6.101,-6.0979,-6.1014,-6.1113,-6.0966,-6.0965,-6.0992,-6.1209,-6.124,-6.1259,-6.1085,-6.1088,-6.109,-6.1209,0,-6.102,-6.1089,-6.1052,-6.1126,-6.1152,-6.1092,-6.1128,-6.1125,-6.1108,-6.1129,-6.111,-6.1134,-6.1079,-6.1082,-6.1113,-6.1094,-6.1155,-6.1085,-6.1115,-6.1116,-6.1116,-6.1279,-6.1313,-6.1425,-6.1223,-6.1226,-6.1228,0,-6.117,-6.1179,-6.1255,-6.1239,-6.1249,-6.1282,-6.1291,-6.1311,-6.1307,-6.1292,-6.1298,-6.126,-6.1299,-6.1236,-6.1289,-6.1242,-6.1252,-6.1245,-6.1248,-6.1248,-6.1178,-6.1283,-6.146,-6.1476,-6.1251,-6.1249,-6.1247,0,-6.1297,-6.1328,-6.1377,-6.1379,-6.1362,-6.1386,-6.138,-6.1373,-6.1383,-6.1391,-6.1397,-6.1411,-6.1418,-6.1429,-6.1395,-6.1352,-6.1452,-6.1386,-6.1441,-6.1442,-6.1463,-6.1462,-6.1643,-6.1473,-6.1473,-6.1472,-6.1472,0,-6.1434,-6.1483,-6.1434,-6.1465,-6.1518,-6.1474,-6.1528,-6.1515,-6.1509,-6.1536,-6.1485,-6.1511,-6.1466,-6.1487,-6.1461,-6.1509,-6.1513,-6.1502,-6.1494,-6.1506,-6.1507,-6.151,-6.1501,-6.1477,-6.1476,-6.1475,-6.1474,0,-6.1584,-6.1554,-6.1603,-6.1583,-6.1579,-6.1619,-6.1601,-6.1628,-6.1608,-6.1642,-6.1648,-6.1616,-6.1639,-6.1607,-6.1627,-6.1609,-6.1674,-6.1655,-6.1675,-6.1669,-6.1725,-6.172,-6.1914,-6.1937,-6.1753,-6.1755,-6.1756,0,-6.1674,-6.171,-6.1693,-6.1707,-6.1703,-6.1727,-6.1737,-6.1696,-6.1709,-6.1707,-6.1734,-6.1753,-6.1765,-6.1805,-6.1784,-6.1799,-6.1779,-6.1846,-6.1781,-6.1791,-6.1778,-6.1776,-6.1779,-6.1859,-6.1861,-6.1863,-6.1865,0,-6.1834,-6.1817,-6.1833,-6.1845,-6.1858,-6.1865,-6.1868,-6.1883,-6.184,-6.1857,-6.1879,-6.1889,-6.1909,-6.1928,-6.1938,-6.1931,-6.1891,-6.1886,-6.1899,-6.191,-6.1919,-6.1914,-6.171,-6.1881,-6.1879,-6.1878,-6.1877,-6.1876,-6.1956,-6.1984,-6.1977,-6.1996,-6.1994,-6.1999,-6.2023,-6.2005,-6.2023,-6.2036,-6.2011,-6.204,-6.2035,-6.2043,-6.2041,-6.2063,-6.2034,-6.2054,-6.2058,-6.2063,-6.2071,-6.1917,-6.2065,-6.2065,-6.2064,-6.2064,-6.2063,0,-6.2113,-6.2105,-6.2123,-6.2129,-6.2144,-6.2105,-6.2107,-6.2122,-6.2148,-6.2146,-6.216,-6.2186,-6.2204,-6.2185,-6.2199,-6.222,-6.2202,-6.2225,-6.2223,-6.2222,-6.2097,-6.2084,-6.224,-6.224,-6.224,-6.224,-6.224,-6.224,-6.2196,-6.2242,-6.2224,-6.2269,-6.2261,-6.2288,-6.2292,-6.2296,-6.2294,-6.2325,-6.234,-6.2327,-6.2318,-6.2331,-6.2346,-6.234,-6.2347,-6.2377,-6.2364,-6.2248,-6.2231,-6.2214,-6.2201,-6.2379,-6.2379,-6.2486,-6.2487,-6.2488]}]]